• In Hungary
  • List of Countries
  • For 7 days
  • Water Temperature
  • Satellite Maps
  • Weather Map
  • News
  • Weather Widgets
  • user-avatar
    Login

    Hourly Weather Homburg

    Today, 12 December, Tuesday

    Time Temperature Precipitation Wind Pressure Humidity
    00:00 +1°C° 0 mm 8 mps 720 mmHg 82%
    01:00 0°C° 0.1 mm 8 mps 722 mmHg 82%
    02:00 0°C° 0.1 mm 8 mps 723 mmHg 82%
    03:00 -1°C° 0.1 mm 7 mps 725 mmHg 81%
    04:00 -1°C° 0 mm 7 mps 727 mmHg 82%
    05:00 -1°C° 0 mm 6 mps 728 mmHg 83%
    06:00 -1°C° 0 mm 6 mps 730 mmHg 84%
    07:00 0°C° 0 mm 5 mps 731 mmHg 84%
    08:00 0°C° 0 mm 5 mps 733 mmHg 85%
    09:00 -1°C° 0 mm 5 mps 734 mmHg 86%
    10:00 0°C° 0 mm 5 mps 735 mmHg 85%
    11:00 0°C° 0 mm 5 mps 735 mmHg 83%
    12:00 +1°C° 0 mm 5 mps 736 mmHg 82%
    13:00 +1°C° 0 mm 5 mps 737 mmHg 81%
    14:00 0°C° 0 mm 4 mps 737 mmHg 80%
    15:00 0°C° 0 mm 4 mps 738 mmHg 79%
    16:00 0°C° 0 mm 4 mps 738 mmHg 81%
    17:00 +1°C° 0 mm 3 mps 739 mmHg 84%
    18:00 0°C° 0 mm 3 mps 739 mmHg 86%
    19:00 0°C° 0 mm 3 mps 740 mmHg 88%
    20:00 -1°C° 0 mm 3 mps 740 mmHg 90%
    21:00 -1°C° 0 mm 3 mps 741 mmHg 92%
    22:00 -1°C° 0 mm 3 mps 741 mmHg 92%
    23:00 -1°C° 0 mm 3 mps 741 mmHg 92%

    Tomorrow, 13 December, Wednesday

    Time Temperature Precipitation Wind Pressure Humidity
    00:00 -1°C° 0 mm 3 mps 741 mmHg 93%
    01:00 -2°C° 0 mm 4 mps 741 mmHg 92%
    02:00 -2°C° 0 mm 4 mps 741 mmHg 91%
    03:00 -1°C° 0 mm 4 mps 740 mmHg 90%
    04:00 -1°C° 0 mm 4 mps 740 mmHg 89%
    05:00 -1°C° 0 mm 5 mps 740 mmHg 88%
    06:00 -1°C° 0 mm 5 mps 739 mmHg 88%
    07:00 -2°C° 0 mm 6 mps 739 mmHg 85%
    08:00 -1°C° 0 mm 6 mps 738 mmHg 83%
    09:00 -1°C° 0 mm 7 mps 737 mmHg 81%
    10:00 0°C° 0.4 mm 7 mps 737 mmHg 80%
    11:00 +2°C° 0.4 mm 7 mps 736 mmHg 79%
    12:00 +2°C° 0.4 mm 7 mps 735 mmHg 78%
    13:00 +1°C° 0.7 mm 8 mps 734 mmHg 80%
    14:00 +1°C° 0.7 mm 8 mps 734 mmHg 81%
    15:00 +1°C° 0.7 mm 8 mps 733 mmHg 83%
    16:00 +1°C° 0.3 mm 8 mps 732 mmHg 84%
    17:00 +2°C° 0.3 mm 8 mps 732 mmHg 85%
    18:00 +2°C° 0.3 mm 8 mps 731 mmHg 86%
    19:00 +2°C° 0.2 mm 9 mps 730 mmHg 86%
    20:00 +2°C° 0.2 mm 9 mps 729 mmHg 86%
    21:00 +3°C° 0.2 mm 9 mps 729 mmHg 86%
    22:00 +3°C° 0.6 mm 9 mps 728 mmHg 86%
    23:00 +3°C° 0.6 mm 9 mps 728 mmHg 86%

    Day after tomorrow, 14 December, Thursday

    Time Temperature Precipitation Wind Pressure Humidity
    00:00 +5°C° 0.6 mm 9 mps 727 mmHg 86%
    01:00 +3°C° 0.7 mm 9 mps 728 mmHg 84%
    02:00 +3°C° 0.7 mm 9 mps 728 mmHg 81%
    03:00 +4°C° 0.7 mm 8 mps 728 mmHg 79%
    04:00 +3°C° 0.1 mm 7 mps 729 mmHg 79%
    05:00 +2°C° 0.1 mm 6 mps 730 mmHg 79%
    06:00 +1°C° 0.1 mm 5 mps 731 mmHg 79%
    07:00 +1°C° 0 mm 5 mps 731 mmHg 80%
    08:00 +2°C° 0 mm 5 mps 731 mmHg 81%
    09:00 +2°C° 0 mm 6 mps 731 mmHg 82%
    10:00 +2°C° 0.2 mm 6 mps 730 mmHg 81%
    11:00 +3°C° 0.2 mm 7 mps 730 mmHg 80%
    12:00 +3°C° 0.2 mm 7 mps 729 mmHg 79%
    13:00 +3°C° 0.8 mm 7 mps 728 mmHg 81%
    14:00 +3°C° 0.8 mm 7 mps 726 mmHg 82%
    15:00 +3°C° 0.8 mm 6 mps 725 mmHg 83%
    16:00 +3°C° 0.5 mm 7 mps 724 mmHg 83%
    17:00 +3°C° 0.5 mm 7 mps 724 mmHg 84%
    18:00 +3°C° 0.5 mm 7 mps 723 mmHg 84%
    19:00 +3°C° 0.5 mm 7 mps 724 mmHg 83%
    20:00 +2°C° 0.5 mm 6 mps 725 mmHg 82%
    21:00 +1°C° 0.5 mm 6 mps 725 mmHg 81%
    22:00 +1°C° 0 mm 6 mps 726 mmHg 81%
    23:00 +1°C° 0 mm 6 mps 726 mmHg 80%

    15 December, Friday

    Time Temperature Precipitation Wind Pressure Humidity
    00:00 +1°C° 0 mm 6 mps 727 mmHg 80%
    01:00 -1°C° 0 mm 6 mps 727 mmHg 82%
    02:00 -1°C° 0 mm 6 mps 727 mmHg 84%
    03:00 -1°C° 0 mm 6 mps 727 mmHg 86%
    04:00 0°C° 0 mm 5 mps 727 mmHg 87%
    05:00 0°C° 0 mm 5 mps 727 mmHg 87%
    06:00 0°C° 0 mm 5 mps 727 mmHg 88%
    07:00 -1°C° 0.3 mm 6 mps 726 mmHg 87%
    08:00 -1°C° 0.3 mm 6 mps 726 mmHg 86%
    09:00 0°C° 0.3 mm 7 mps 726 mmHg 84%
    10:00 0°C° 0.6 mm 7 mps 726 mmHg 84%
    11:00 0°C° 0.6 mm 7 mps 726 mmHg 83%
    12:00 +2°C° 0.6 mm 7 mps 725 mmHg 82%
    13:00 +2°C° 1.2 mm 6 mps 725 mmHg 85%
    14:00 +1°C° 1.2 mm 5 mps 725 mmHg 87%
    15:00 +1°C° 1.2 mm 4 mps 725 mmHg 89%
    16:00 +1°C° 0.5 mm 4 mps 726 mmHg 90%
    17:00 0°C° 0.5 mm 4 mps 727 mmHg 91%
    18:00 0°C° 0.5 mm 4 mps 727 mmHg 92%
    19:00 0°C° 0 mm 4 mps 728 mmHg 91%
    20:00 0°C° 0 mm 4 mps 729 mmHg 91%
    21:00 0°C° 0 mm 4 mps 730 mmHg 90%
    22:00 -1°C° 0 mm 4 mps 731 mmHg 91%
    23:00 -1°C° 0 mm 4 mps 731 mmHg 92%

    16 December, Saturday

    Time Temperature Precipitation Wind Pressure Humidity
    00:00 0°C° 0 mm 3 mps 732 mmHg 92%
    01:00 0°C° 0 mm 3 mps 732 mmHg 92%
    02:00 0°C° 0 mm 3 mps 733 mmHg 93%
    03:00 -1°C° 0 mm 4 mps 733 mmHg 93%
    04:00 -1°C° 0.3 mm 4 mps 733 mmHg 93%
    05:00 -1°C° 0.3 mm 4 mps 734 mmHg 92%
    06:00 -1°C° 0.3 mm 4 mps 734 mmHg 92%
    07:00 -1°C° 0.2 mm 4 mps 734 mmHg 92%
    08:00 0°C° 0.2 mm 4 mps 735 mmHg 92%
    09:00 0°C° 0.2 mm 4 mps 735 mmHg 92%
    10:00 0°C° 0.1 mm 4 mps 735 mmHg 91%
    11:00 0°C° 0.1 mm 4 mps 736 mmHg 90%
    12:00 +1°C° 0.1 mm 4 mps 736 mmHg 90%
    13:00 0°C° 0.1 mm 4 mps 736 mmHg 89%
    14:00 0°C° 0.1 mm 4 mps 736 mmHg 89%
    15:00 0°C° 0.1 mm 4 mps 736 mmHg 88%
    16:00 0°C° 0.1 mm 4 mps 737 mmHg 89%
    17:00 -1°C° 0.1 mm 4 mps 737 mmHg 91%
    18:00 -1°C° 0.1 mm 4 mps 737 mmHg 92%
    19:00 0°C° 0.2 mm 3 mps 738 mmHg 92%
    20:00 0°C° 0.2 mm 3 mps 738 mmHg 93%
    21:00 0°C° 0.2 mm 3 mps 738 mmHg 93%
    22:00 -1°C° 0 mm 3 mps 739 mmHg 93%
    23:00 -2°C° 0 mm 3 mps 739 mmHg 94%

    17 December, Sunday

    Time Temperature Precipitation Wind Pressure Humidity
    00:00 -2°C° 0 mm 2 mps 739 mmHg 94%
    01:00 -2°C° 0 mm 2 mps 740 mmHg 94%
    02:00 -2°C° 0 mm 3 mps 740 mmHg 94%
    03:00 -4°C° 0 mm 3 mps 740 mmHg 94%
    04:00 -2°C° 0 mm 3 mps 741 mmHg 93%
    05:00 -2°C° 0 mm 3 mps 741 mmHg 92%
    06:00 -1°C° 0 mm 3 mps 742 mmHg 92%
    07:00 -1°C° 0 mm 3 mps 742 mmHg 92%
    08:00 -1°C° 0 mm 3 mps 743 mmHg 91%
    09:00 -2°C° 0 mm 4 mps 743 mmHg 91%
    10:00 -2°C° 0 mm 4 mps 743 mmHg 90%
    11:00 -1°C° 0 mm 4 mps 743 mmHg 89%
    12:00 -1°C° 0 mm 4 mps 744 mmHg 87%
    13:00 -1°C° 0 mm 4 mps 744 mmHg 88%
    14:00 -1°C° 0 mm 4 mps 743 mmHg 88%
    15:00 -2°C° 0 mm 4 mps 743 mmHg 88%
    16:00 -2°C° 0 mm 4 mps 744 mmHg 88%
    17:00 -2°C° 0 mm 4 mps 744 mmHg 88%
    18:00 -2°C° 0 mm 5 mps 744 mmHg 88%
    19:00 -2°C° 0.2 mm 5 mps 744 mmHg 88%
    20:00 -2°C° 0.2 mm 5 mps 744 mmHg 88%
    21:00 -2°C° 0.2 mm 5 mps 744 mmHg 87%
    22:00 -2°C° 0.1 mm 5 mps 743 mmHg 88%
    23:00 -2°C° 0.1 mm 5 mps 743 mmHg 88%
    Show more